When you browse on this site, cookies collect data to enhance your experience and personalize the content and advertising you see.
Visit our Privacy Policy to learn more. By continuing to use the site, you agree to this use of cookies and data.
  • In Latvia
  • List of Countries
  • For 7 days
  • Water Temperature
  • Weather Map
  • Weather Widgets
  • user-avatar
    Login

    Hourly Weather Yelsk

    Today, 3 June, Wednesday

    Time Temperature Precipitation Wind Pressure Humidity
    00:00 +7°C° 0 mm 2 mps 738 mmHg 97%
    01:00 +6°C° 0 mm 2 mps 738 mmHg 97%
    02:00 +6°C° 0 mm 2 mps 738 mmHg 98%
    03:00 +5°C° 0.1 mm 3 mps 738 mmHg 97%
    04:00 +5°C° 0.1 mm 3 mps 738 mmHg 97%
    05:00 +7°C° 0.1 mm 3 mps 738 mmHg 96%
    06:00 +8°C° 0.1 mm 3 mps 738 mmHg 93%
    07:00 +8°C° 0.1 mm 4 mps 738 mmHg 90%
    08:00 +10°C° 0 mm 4 mps 738 mmHg 86%
    09:00 +10°C° 0.4 mm 5 mps 738 mmHg 83%
    10:00 +10°C° 0.4 mm 5 mps 738 mmHg 80%
    11:00 +12°C° 0.4 mm 5 mps 738 mmHg 77%
    12:00 +13°C° 0.5 mm 5 mps 738 mmHg 75%
    13:00 +14°C° 0.5 mm 5 mps 738 mmHg 73%
    14:00 +15°C° 0.5 mm 4 mps 738 mmHg 71%
    15:00 +14°C° 0.4 mm 4 mps 738 mmHg 73%
    16:00 +14°C° 0.4 mm 4 mps 738 mmHg 75%
    17:00 +14°C° 0.4 mm 3 mps 737 mmHg 77%
    18:00 +13°C° 0.2 mm 3 mps 737 mmHg 81%
    19:00 +13°C° 0.2 mm 2 mps 737 mmHg 86%
    20:00 +10°C° 0.2 mm 2 mps 737 mmHg 91%
    21:00 +9°C° 0 mm 2 mps 737 mmHg 92%
    22:00 +9°C° 0 mm 2 mps 737 mmHg 93%
    23:00 +8°C° 0 mm 2 mps 737 mmHg 94%

    Tomorrow, 4 June, Thursday

    Time Temperature Precipitation Wind Pressure Humidity
    00:00 +7°C° 0 mm 2 mps 737 mmHg 94%
    01:00 +7°C° 0 mm 2 mps 737 mmHg 94%
    02:00 +6°C° 0 mm 2 mps 737 mmHg 95%
    03:00 +7°C° 0 mm 2 mps 737 mmHg 95%
    04:00 +7°C° 0 mm 2 mps 737 mmHg 95%
    05:00 +7°C° 0 mm 2 mps 737 mmHg 95%
    06:00 +9°C° 0 mm 2 mps 737 mmHg 90%
    07:00 +12°C° 0 mm 2 mps 737 mmHg 84%
    08:00 +13°C° 0 mm 3 mps 737 mmHg 79%
    09:00 +14°C° 0.2 mm 3 mps 737 mmHg 73%
    10:00 +16°C° 0.2 mm 3 mps 737 mmHg 68%
    11:00 +17°C° 0.2 mm 4 mps 737 mmHg 62%
    12:00 +18°C° 0.3 mm 4 mps 737 mmHg 60%
    13:00 +18°C° 0.3 mm 4 mps 737 mmHg 57%
    14:00 +19°C° 0.3 mm 4 mps 737 mmHg 55%
    15:00 +19°C° 0.3 mm 4 mps 737 mmHg 59%
    16:00 +18°C° 0.3 mm 4 mps 736 mmHg 64%
    17:00 +18°C° 0.3 mm 4 mps 736 mmHg 68%
    18:00 +16°C° 0.3 mm 3 mps 736 mmHg 75%
    19:00 +14°C° 0.3 mm 3 mps 736 mmHg 81%
    20:00 +13°C° 0.3 mm 2 mps 736 mmHg 87%
    21:00 +13°C° 0.1 mm 2 mps 736 mmHg 90%
    22:00 +12°C° 0.1 mm 2 mps 736 mmHg 92%
    23:00 +10°C° 0.1 mm 2 mps 736 mmHg 95%

    Day after tomorrow, 5 June, Friday

    Time Temperature Precipitation Wind Pressure Humidity
    00:00 +10°C° 0 mm 2 mps 736 mmHg 95%
    01:00 +9°C° 0 mm 2 mps 736 mmHg 95%
    02:00 +9°C° 0 mm 2 mps 736 mmHg 95%
    03:00 +9°C° 0 mm 2 mps 736 mmHg 96%
    04:00 +9°C° 0 mm 2 mps 736 mmHg 96%
    05:00 +9°C° 0 mm 2 mps 736 mmHg 96%
    06:00 +13°C° 0 mm 2 mps 737 mmHg 91%
    07:00 +15°C° 0 mm 2 mps 737 mmHg 86%
    08:00 +17°C° 0 mm 2 mps 737 mmHg 82%
    09:00 +18°C° 0.2 mm 3 mps 737 mmHg 80%
    10:00 +19°C° 0.2 mm 4 mps 737 mmHg 79%
    11:00 +20°C° 0.2 mm 5 mps 737 mmHg 78%
    12:00 +19°C° 0.3 mm 5 mps 737 mmHg 82%
    13:00 +18°C° 0.3 mm 4 mps 738 mmHg 87%
    14:00 +17°C° 0.3 mm 4 mps 738 mmHg 92%
    15:00 +18°C° 0 mm 3 mps 738 mmHg 89%
    16:00 +19°C° 0 mm 3 mps 738 mmHg 86%
    17:00 +19°C° 0 mm 3 mps 738 mmHg 83%
    18:00 +19°C° 0 mm 3 mps 738 mmHg 86%
    19:00 +18°C° 0 mm 3 mps 738 mmHg 89%
    20:00 +18°C° 0 mm 3 mps 738 mmHg 92%
    21:00 +17°C° 0.1 mm 3 mps 738 mmHg 93%
    22:00 +16°C° 0.1 mm 3 mps 739 mmHg 93%
    23:00 +16°C° 0.1 mm 3 mps 739 mmHg 94%

    6 June, Saturday

    Time Temperature Precipitation Wind Pressure Humidity
    00:00 +14°C° 0.1 mm 3 mps 739 mmHg 94%
    01:00 +14°C° 0.1 mm 3 mps 739 mmHg 95%
    02:00 +15°C° 0.1 mm 2 mps 739 mmHg 95%
    03:00 +14°C° 0.1 mm 3 mps 739 mmHg 95%
    04:00 +14°C° 0.1 mm 3 mps 739 mmHg 94%
    05:00 +16°C° 0.1 mm 3 mps 739 mmHg 94%
    06:00 +17°C° 0 mm 3 mps 739 mmHg 90%
    07:00 +18°C° 0 mm 3 mps 740 mmHg 87%
    08:00 +19°C° 0 mm 3 mps 740 mmHg 83%
    09:00 +20°C° 0 mm 3 mps 741 mmHg 78%
    10:00 +22°C° 0 mm 3 mps 741 mmHg 73%
    11:00 +24°C° 0 mm 3 mps 742 mmHg 68%
    12:00 +22°C° 0.2 mm 3 mps 742 mmHg 73%
    13:00 +21°C° 0.2 mm 3 mps 742 mmHg 79%
    14:00 +20°C° 0.2 mm 3 mps 742 mmHg 84%
    15:00 +21°C° 0.1 mm 3 mps 743 mmHg 80%
    16:00 +22°C° 0.1 mm 3 mps 743 mmHg 75%
    17:00 +24°C° 0.1 mm 2 mps 743 mmHg 70%
    18:00 +23°C° 0.1 mm 2 mps 743 mmHg 76%
    19:00 +21°C° 0.1 mm 1 mps 744 mmHg 82%
    20:00 +20°C° 0.1 mm 1 mps 744 mmHg 88%
    21:00 +19°C° 0.1 mm 1 mps 744 mmHg 89%
    22:00 +18°C° 0.1 mm 1 mps 745 mmHg 90%
    23:00 +16°C° 0.1 mm 0 mps 745 mmHg 92%

    7 June, Sunday

    Time Temperature Precipitation Wind Pressure Humidity
    00:00 +16°C° 0 mm 1 mps 745 mmHg 92%
    01:00 +16°C° 0 mm 1 mps 745 mmHg 93%
    02:00 +16°C° 0 mm 1 mps 745 mmHg 94%
    03:00 +16°C° 0 mm 1 mps 745 mmHg 95%
    04:00 +16°C° 0 mm 1 mps 745 mmHg 95%
    05:00 +16°C° 0 mm 2 mps 746 mmHg 96%
    06:00 +18°C° 0.2 mm 1 mps 746 mmHg 93%
    07:00 +20°C° 0.2 mm 1 mps 746 mmHg 90%
    08:00 +21°C° 0.2 mm 1 mps 746 mmHg 87%
    09:00 +21°C° 0.3 mm 2 mps 746 mmHg 83%
    10:00 +23°C° 0.3 mm 2 mps 746 mmHg 79%
    11:00 +24°C° 0.3 mm 2 mps 746 mmHg 75%
    12:00 +25°C° 0.6 mm 3 mps 746 mmHg 72%
    13:00 +26°C° 0.6 mm 3 mps 746 mmHg 70%
    14:00 +26°C° 0.6 mm 4 mps 745 mmHg 67%
    15:00 +25°C° 1.1 mm 3 mps 745 mmHg 73%
    16:00 +24°C° 1.1 mm 3 mps 745 mmHg 78%
    17:00 +23°C° 1.1 mm 2 mps 745 mmHg 84%
    18:00 +21°C° 0.3 mm 2 mps 745 mmHg 84%
    19:00 +21°C° 0.3 mm 2 mps 745 mmHg 84%
    20:00 +21°C° 0.3 mm 1 mps 745 mmHg 84%
    21:00 +19°C° 0 mm 2 mps 745 mmHg 86%
    22:00 +19°C° 0 mm 2 mps 745 mmHg 87%
    23:00 +18°C° 0 mm 3 mps 745 mmHg 89%

    8 June, Monday

    Time Temperature Precipitation Wind Pressure Humidity
    00:00 +18°C° 1.1 mm 2 mps 745 mmHg 91%
    01:00 +18°C° 1.1 mm 2 mps 745 mmHg 93%
    02:00 +18°C° 1.1 mm 2 mps 744 mmHg 95%
    03:00 +18°C° 1.2 mm 2 mps 744 mmHg 95%
    04:00 +18°C° 1.2 mm 3 mps 744 mmHg 96%
    05:00 +18°C° 1.2 mm 3 mps 744 mmHg 96%
    06:00 +19°C° 0 mm 4 mps 744 mmHg 92%
    07:00 +20°C° 0 mm 4 mps 744 mmHg 88%
    08:00 +21°C° 0 mm 4 mps 744 mmHg 84%
    09:00 +23°C° 0 mm 4 mps 744 mmHg 78%
    10:00 +25°C° 0 mm 5 mps 744 mmHg 72%
    11:00 +26°C° 0 mm 5 mps 744 mmHg 66%
    12:00 +27°C° 0 mm 5 mps 744 mmHg 64%
    13:00 +27°C° 0 mm 5 mps 744 mmHg 63%
    14:00 +27°C° 0 mm 5 mps 744 mmHg 61%
    15:00 +27°C° 0 mm 5 mps 743 mmHg 63%
    16:00 +27°C° 0 mm 5 mps 743 mmHg 65%
    17:00 +26°C° 0 mm 4 mps 743 mmHg 66%
    18:00 +25°C° 0 mm 4 mps 743 mmHg 73%
    19:00 +22°C° 0 mm 3 mps 744 mmHg 80%
    20:00 +21°C° 0 mm 2 mps 744 mmHg 86%
    21:00 +20°C° 0 mm 2 mps 744 mmHg 88%
    22:00 +20°C° 0 mm 2 mps 744 mmHg 90%
    23:00 +19°C° 0 mm 2 mps 745 mmHg 92%
    Show more